[[{"header":{"parameterUnit":"m.s-1","parameterCategory":1,"la1":30.2991,"la2":30.254,"lo1":-89.0895,"lo2":-89.0444,"dy":0.0017,"dx":0.0017,"nx":28,"ny":28,"refTime":"2025-02-11T09:00:00:Z","depth":0,"parameterNumber":2,"parameterNumberName":"U-component_of_WINDS"},"data":[0,0,0,0,0,0,0,0,0,0,0,0,0,0,0,0,0,0,0,0,0,0,0,0,0,0,0,0,0,0,0,0,0,0,0,0,0,0,0,0,0,0,0,0,0,0,0,0,0,0,0,0,0,0,0,0,0,0,-2.9796,-2.9796,0,-2.9771,-2.977,-2.977,-2.9703,-2.9702,-2.9701,-2.9699,-2.9673,-2.9674,-2.9674,0,0,0,0,0,0,0,0,0,0,0,0,0,-2.9786,-2.9787,-2.9796,-2.9796,-2.9795,-2.9771,-2.977,-2.977,-2.9704,-2.9702,-2.97,-2.9699,-2.9673,-2.9674,-2.9674,0,0,0,0,0,0,0,0,0,0,0,0,0,-2.9779,-2.9787,-2.9796,-2.9759,-2.9756,-2.9771,-2.977,-2.977,-2.9704,-2.9702,-2.97,-2.9698,-2.9673,-2.9673,-2.9674,-2.9723,0,0,-2.9677,-2.9678,0,0,0,0,0,0,0,0,-2.9779,-2.9779,-2.9765,-2.9762,-2.9758,-2.9738,-2.9757,-2.9754,-2.9705,-2.9724,-2.9699,-2.9697,-2.9696,-2.9695,-2.9695,-2.9722,-2.972,-2.9677,-2.9678,-2.9678,-2.9679,0,0,0,0,0,0,0,-2.978,-2.978,-2.9786,-2.9765,-2.9761,-2.9744,-2.974,-2.9756,-2.9722,-2.9722,-2.9717,-2.9715,-2.9694,-2.9694,-2.9694,-2.972,-2.9677,-2.9678,-2.9679,-2.9679,-2.9783,-2.9785,0,0,0,0,0,0,-2.9786,-2.9781,-2.9787,-2.9785,-2.9763,-2.9746,-2.9742,-2.9747,-2.9722,-2.9716,-2.9717,-2.9712,-2.9694,-2.9693,-2.9693,-2.9746,-2.9678,-2.9679,-2.968,-2.978,-2.9783,-2.9785,0,0,0,0,0,0,-2.9786,-2.9787,-2.9788,-2.9782,-2.978,-2.9748,-2.9754,-2.9747,-2.9747,-2.9718,-2.9712,-2.9723,-2.9692,-2.9691,-2.9715,-2.9744,-2.968,-2.968,-2.9778,-2.9781,-2.9784,-2.9854,0,0,0,0,0,0,-2.9786,-2.9787,-2.9806,-2.9782,-2.9781,-2.9811,-2.9756,-2.9748,-2.9749,-2.9743,-2.9723,-2.9717,-2.969,-2.9714,-2.9716,-2.9744,-2.9681,-2.9775,-2.9779,-2.9783,-2.9849,-2.9859,-2.9868,0,0,0,0,0,-2.9786,-2.9827,-2.9807,-2.9808,-2.9803,-2.9813,-2.9812,-2.9781,-2.9752,-2.977,-2.975,-2.9718,-2.9741,-2.9717,-2.9719,-2.9748,-2.9773,-2.9778,-2.9783,-2.9845,-2.9857,-2.9868,0,0,0,0,0,0,-2.9855,-2.9823,-2.9801,-2.9836,-2.9828,-2.9802,-2.9823,-2.9795,-2.9795,-2.9789,-2.975,-2.9746,-2.9774,-2.9764,-2.9738,-2.9792,-2.9752,-2.9757,-2.9798,-2.981,-2.9819,-2.982,-2.9682,0,0,0,0,0,-2.9874,-2.9885,-2.9857,-2.989,-2.9887,-2.9856,-2.9859,-2.9836,-2.9825,-2.9822,-2.9804,-2.9796,-2.98,-2.9805,-2.9808,-2.9847,-2.9841,-2.9868,-2.9878,-2.9886,-2.989,-2.9908,-2.9919,-2.9802,-2.9801,-2.9801,0,0,-2.9914,-2.9898,-2.9907,-2.9904,-2.9894,-2.9906,-2.9854,-2.9868,-2.9876,-2.9824,-2.9844,-2.9832,-2.9819,-2.9851,-2.9864,-2.9842,-2.9921,-2.9892,-2.9898,-2.9899,-2.9914,-2.9925,-2.9935,-2.9805,-2.9804,-2.9804,0,0,-2.9992,-2.9982,-3.0008,-2.9999,-2.9986,-2.9965,-2.9971,-2.9949,-2.9939,-2.9959,-2.9919,-2.9928,-2.9938,-2.993,-2.9928,-3.0001,-2.9971,-3.0004,-3.0053,-3.0071,-3.008,-3.0088,-3.0113,-3.0122,-3.0009,-3.0009,-3.0009,0,-3.0043,-3.0059,-3.0025,-3.0041,-3.004,-2.9993,-3.0018,-3.0012,-3.0,-3.0,-2.9977,-2.9987,-2.9976,-3.0004,-3.0021,-3.0022,-3.0026,-3.0005,-3.0082,-3.0089,-3.0096,-3.0119,-3.0129,-3.0013,-3.0013,-3.0012,-3.0012,0,-3.0122,-3.0133,-3.0155,-3.0145,-3.0146,-3.0167,-3.0135,-3.0141,-3.0117,-3.0098,-3.0119,-3.0103,-3.0101,-3.0107,-3.0084,-3.0131,-3.0118,-3.0089,-3.0047,-3.0112,-3.0133,-3.0141,-3.0019,-3.0017,-3.0016,-3.0015,0,0,-3.0242,-3.0212,-3.022,-3.0214,-3.0195,-3.0203,-3.0222,-3.0219,-3.0224,-3.0218,-3.0231,-3.024,-3.0213,-3.021,-3.0186,-3.0202,-3.0258,-3.017,-3.0169,-3.0185,-3.0307,-3.0327,-3.0338,-3.0239,-3.024,-3.0241,-3.0307,0,-3.0314,-3.0344,-3.0313,-3.0348,-3.0357,-3.0312,-3.0328,-3.0318,-3.0301,-3.0306,-3.0286,-3.0293,-3.0257,-3.0255,-3.0269,-3.0249,-3.0282,-3.0244,-3.0249,-3.025,-3.0252,-3.0349,-3.0371,-3.0434,-3.0315,-3.0317,-3.0318,0,-3.0402,-3.0399,-3.0435,-3.0412,-3.0415,-3.043,-3.0424,-3.043,-3.0417,-3.0403,-3.04,-3.037,-3.0385,-3.0346,-3.0365,-3.034,-3.034,-3.0331,-3.0333,-3.033,-3.0287,-3.0348,-3.0454,-3.0463,-3.033,-3.0329,-3.0328,0,-3.0484,-3.0489,-3.0511,-3.0507,-3.0482,-3.0493,-3.0483,-3.0468,-3.0468,-3.0463,-3.0463,-3.0461,-3.0459,-3.0457,-3.0427,-3.0402,-3.045,-3.0408,-3.0438,-3.0438,-3.0449,-3.0448,-3.0554,-3.0452,-3.0452,-3.0452,-3.0452,0,-3.0567,-3.059,-3.0547,-3.056,-3.0585,-3.0549,-3.0574,-3.0559,-3.0546,-3.0555,-3.0516,-3.0525,-3.0486,-3.0491,-3.0468,-3.0486,-3.0486,-3.0475,-3.0468,-3.0477,-3.0478,-3.0475,-3.047,-3.0454,-3.0454,-3.0453,-3.0453,0,-3.0662,-3.0634,-3.0655,-3.0629,-3.0622,-3.0642,-3.0619,-3.0629,-3.061,-3.0621,-3.0622,-3.059,-3.0594,-3.0564,-3.0562,-3.0546,-3.0575,-3.0561,-3.0579,-3.0574,-3.0604,-3.0601,-3.0711,-3.0722,-3.0615,-3.0616,-3.0617,0,-3.0716,-3.0733,-3.0708,-3.0711,-3.0703,-3.0709,-3.0708,-3.0674,-3.0675,-3.066,-3.0672,-3.0672,-3.067,-3.0677,-3.0654,-3.0652,-3.0637,-3.0675,-3.0636,-3.0644,-3.0635,-3.0633,-3.0634,-3.0683,-3.0684,-3.0686,-3.0686,0,-3.0814,-3.0799,-3.08,-3.0796,-3.0796,-3.0792,-3.0784,-3.0789,-3.0751,-3.0754,-3.0756,-3.0755,-3.0752,-3.0752,-3.0745,-3.0733,-3.0703,-3.0699,-3.0705,-3.0714,-3.0723,-3.0716,-3.0599,-3.0696,-3.0695,-3.0695,-3.0694,-3.0694,-3.0888,-3.09,-3.0884,-3.0886,-3.0877,-3.0871,-3.0879,-3.086,-3.0861,-3.0856,-3.0835,-3.0841,-3.0826,-3.0813,-3.0805,-3.0808,-3.0789,-3.0799,-3.0801,-3.0803,-3.0808,-3.0724,-3.0807,-3.0807,-3.0806,-3.0806,-3.0806,0,-3.0982,-3.097,-3.0972,-3.0962,-3.0963,-3.0935,-3.0925,-3.0928,-3.0933,-3.0922,-3.092,-3.0923,-3.0922,-3.0898,-3.0894,-3.0901,-3.0887,-3.0901,-3.09,-3.0897,-3.0826,-3.082,-3.0913,-3.0913,-3.0913,-3.0913,-3.0913,-3.0913,-3.1031,-3.1049,-3.1032,-3.1045,-3.1032,-3.1037,-3.1033,-3.1027,-3.1017,-3.1021,-3.102,-3.1005,-3.0988,-3.0982,-3.098,-3.0973,-3.0972,-3.0991,-3.0979,-3.0913,-3.0902,-3.0892,-3.0886,-3.0992,-3.0992,-3.1049,-3.105,-3.105]},{"header":{"parameterUnit":"m.s-1","parameterCategory":1,"la1":30.2991,"la2":30.254,"lo1":-89.0895,"lo2":-89.0444,"dy":0.0017,"dx":0.0017,"nx":28,"ny":28,"refTime":"2025-02-11T09:00:00:Z","depth":0,"parameterNumber":3,"parameterNumberName":"V-component_of_WINDS"},"data":[0,0,0,0,0,0,0,0,0,0,0,0,0,0,0,0,0,0,0,0,0,0,0,0,0,0,0,0,0,0,0,0,0,0,0,0,0,0,0,0,0,0,0,0,0,0,0,0,0,0,0,0,0,0,0,0,0,0,0.0184,0.0184,0,0.0195,0.0195,0.0196,0.0179,0.0178,0.0177,0.0177,0.0191,0.0192,0.0193,0,0,0,0,0,0,0,0,0,0,0,0,0,0.0152,0.0153,0.0184,0.0184,0.0184,0.0195,0.0195,0.0196,0.0179,0.0178,0.0177,0.0177,0.0191,0.0192,0.0193,0,0,0,0,0,0,0,0,0,0,0,0,0,0.0165,0.0153,0.0184,0.0177,0.0176,0.0195,0.0195,0.0196,0.0179,0.0178,0.0177,0.0176,0.019,0.0192,0.0193,0.022,0,0,0.0197,0.0198,0,0,0,0,0,0,0,0,0.0164,0.0166,0.0178,0.0177,0.0177,0.0184,0.0189,0.0204,0.0179,0.0178,0.0177,0.0176,0.019,0.0191,0.0195,0.0221,0.0221,0.0198,0.0198,0.0199,0.0199,0,0,0,0,0,0,0,0.0163,0.0166,0.0188,0.0178,0.0177,0.0175,0.0176,0.0192,0.0189,0.0178,0.0177,0.0178,0.0189,0.0194,0.0196,0.0221,0.0198,0.0199,0.02,0.02,0.0275,0.0276,0,0,0,0,0,0,0.0163,0.0165,0.0188,0.0189,0.0168,0.0176,0.0177,0.0183,0.0189,0.0189,0.0179,0.0177,0.0192,0.0194,0.0196,0.0231,0.0199,0.02,0.0201,0.0274,0.0275,0.0276,0,0,0,0,0,0,0.0162,0.0165,0.0187,0.0176,0.0179,0.0178,0.0184,0.0184,0.0188,0.0189,0.0189,0.0184,0.0191,0.0194,0.0215,0.0232,0.0201,0.0202,0.0272,0.0274,0.0276,0.03,0,0,0,0,0,0,0.0161,0.0165,0.0173,0.0177,0.018,0.0205,0.0185,0.0185,0.0191,0.0189,0.0194,0.0194,0.0191,0.0213,0.0217,0.0233,0.0203,0.0271,0.0273,0.0275,0.0298,0.0303,0.0306,0,0,0,0,0,0.016,0.0179,0.0174,0.0177,0.019,0.0206,0.0208,0.0203,0.0192,0.0202,0.0203,0.0194,0.0229,0.0215,0.0219,0.0236,0.027,0.0273,0.0275,0.0296,0.0302,0.0306,0,0,0,0,0,0,0.0178,0.0179,0.0173,0.0194,0.02,0.0203,0.0215,0.0208,0.0218,0.0216,0.021,0.0212,0.0235,0.0237,0.0222,0.0265,0.0248,0.0251,0.0263,0.0268,0.0272,0.0272,0.0205,0,0,0,0,0,0.0184,0.0195,0.0196,0.0214,0.0218,0.0216,0.0222,0.0219,0.0225,0.0227,0.023,0.0237,0.0251,0.0259,0.0271,0.0298,0.0301,0.0312,0.0316,0.032,0.0323,0.0343,0.0349,0.0285,0.0285,0.0285,0,0,0.0197,0.0199,0.0206,0.0218,0.0222,0.0236,0.0218,0.0232,0.0243,0.023,0.0251,0.0253,0.0261,0.0287,0.0298,0.029,0.0342,0.0323,0.0326,0.0327,0.0346,0.0352,0.0357,0.0286,0.0286,0.0286,0,0,0.0228,0.023,0.0247,0.0252,0.0259,0.0258,0.0263,0.0267,0.0269,0.0289,0.0281,0.0295,0.0316,0.0324,0.033,0.0369,0.0362,0.0373,0.0396,0.0415,0.042,0.0424,0.0442,0.0448,0.0376,0.0376,0.0376,0,0.0244,0.0263,0.0257,0.0273,0.028,0.0269,0.0288,0.0293,0.0304,0.031,0.03,0.033,0.0334,0.0364,0.0374,0.0378,0.0386,0.0373,0.0419,0.0424,0.0428,0.0445,0.0451,0.0378,0.0377,0.0377,0.0377,0,0.0283,0.0297,0.031,0.0322,0.033,0.0348,0.0347,0.0357,0.0353,0.0354,0.0378,0.0384,0.0398,0.0405,0.04,0.0435,0.043,0.042,0.0403,0.0436,0.0451,0.0457,0.038,0.0379,0.0379,0.0378,0,0,0.0324,0.0335,0.034,0.0347,0.0355,0.0367,0.0386,0.04,0.041,0.0419,0.0437,0.0457,0.0449,0.0457,0.0454,0.047,0.0506,0.0458,0.0459,0.047,0.0549,0.0559,0.0566,0.0501,0.0502,0.0503,0.055,0,0.0358,0.0389,0.0387,0.0417,0.0432,0.0424,0.0441,0.045,0.0452,0.0467,0.047,0.0486,0.0472,0.0478,0.0493,0.0498,0.0522,0.0494,0.0521,0.0522,0.0521,0.0573,0.0582,0.0626,0.0555,0.0556,0.0557,0,0.04,0.0412,0.0445,0.0455,0.0461,0.0476,0.0492,0.0505,0.0516,0.0517,0.0528,0.0524,0.0546,0.0528,0.0561,0.0542,0.0553,0.0557,0.0559,0.0563,0.0543,0.0582,0.0639,0.0647,0.0566,0.0565,0.0564,0,0.0431,0.0455,0.0478,0.0484,0.0496,0.0508,0.0513,0.0523,0.0534,0.0548,0.0555,0.0572,0.0581,0.0596,0.0597,0.0583,0.0632,0.0612,0.0636,0.0637,0.0648,0.0648,0.0711,0.0651,0.0651,0.065,0.065,0,0.047,0.0491,0.0493,0.0508,0.0533,0.053,0.0556,0.0561,0.0571,0.0588,0.0582,0.0599,0.0599,0.0617,0.0619,0.0649,0.0652,0.0656,0.0657,0.0658,0.0658,0.0666,0.0665,0.0652,0.0652,0.0652,0.0651,0,0.0508,0.051,0.0536,0.0546,0.0549,0.0568,0.0577,0.0593,0.0596,0.0619,0.0625,0.063,0.0652,0.0655,0.068,0.0682,0.0718,0.0714,0.0715,0.0715,0.074,0.0739,0.0813,0.0825,0.0754,0.0755,0.0755,0,0.0534,0.055,0.0563,0.0575,0.0581,0.0599,0.0611,0.061,0.0623,0.064,0.0655,0.0676,0.0693,0.0729,0.0737,0.0758,0.0756,0.0781,0.0759,0.0762,0.0761,0.0761,0.0765,0.0785,0.0786,0.0787,0.0787,0,0.058,0.0581,0.0597,0.0615,0.0629,0.0643,0.0656,0.0667,0.0669,0.0684,0.0706,0.072,0.0747,0.077,0.0792,0.08,0.0796,0.0794,0.0801,0.0804,0.0805,0.0809,0.0729,0.0792,0.0792,0.0792,0.0791,0.0791,0.0615,0.0631,0.0644,0.0663,0.0674,0.0687,0.0704,0.0711,0.0729,0.0751,0.0751,0.0777,0.0793,0.0821,0.0831,0.0853,0.0846,0.0855,0.0858,0.0861,0.0866,0.08,0.0857,0.0857,0.0857,0.0856,0.0856,0,0.0664,0.0673,0.0691,0.071,0.0727,0.0721,0.0737,0.0752,0.0774,0.0789,0.0807,0.0836,0.0859,0.087,0.0894,0.091,0.0909,0.0917,0.0917,0.092,0.0869,0.0862,0.0917,0.0917,0.0917,0.0917,0.0917,0.0917,0.0691,0.072,0.0723,0.0758,0.0767,0.0792,0.0803,0.0817,0.0829,0.0861,0.0881,0.0888,0.0902,0.0928,0.0951,0.0953,0.0964,0.0974,0.0976,0.0929,0.0923,0.0917,0.091,0.0975,0.0975,0.1025,0.1026,0.1026]}]]